• In Hungary
  • List of Countries
  • For 7 days
  • Water Temperature
  • Satellite Maps
  • Weather Map
  • News
  • Weather Widgets
  • user-avatar
    Login

    Hourly Weather Emangashi

    Today, 20 June, Wednesday

    Time Temperature Precipitation Wind Pressure Humidity
    00:00 +18°C° 0.3 mm 3 mps 745 mmHg 89%
    01:00 +18°C° 0.4 mm 3 mps 745 mmHg 91%
    02:00 +17°C° 0.4 mm 3 mps 744 mmHg 94%
    03:00 +17°C° 0.4 mm 4 mps 744 mmHg 96%
    04:00 +17°C° 0.2 mm 4 mps 743 mmHg 95%
    05:00 +18°C° 0.2 mm 4 mps 743 mmHg 95%
    06:00 +18°C° 0.2 mm 4 mps 743 mmHg 94%
    07:00 +17°C° 1.4 mm 5 mps 742 mmHg 94%
    08:00 +17°C° 1.4 mm 5 mps 742 mmHg 94%
    09:00 +17°C° 1.4 mm 6 mps 742 mmHg 94%
    10:00 +19°C° 0.4 mm 6 mps 742 mmHg 83%
    11:00 +20°C° 0.4 mm 7 mps 742 mmHg 72%
    12:00 +21°C° 0.4 mm 8 mps 742 mmHg 61%
    13:00 +21°C° 0 mm 7 mps 742 mmHg 57%
    14:00 +21°C° 0 mm 7 mps 742 mmHg 52%
    15:00 +21°C° 0 mm 7 mps 743 mmHg 48%
    16:00 +21°C° 0 mm 6 mps 743 mmHg 52%
    17:00 +20°C° 0 mm 5 mps 743 mmHg 57%
    18:00 +19°C° 0 mm 4 mps 743 mmHg 61%
    19:00 +17°C° 0.1 mm 4 mps 744 mmHg 64%
    20:00 +15°C° 0.1 mm 4 mps 744 mmHg 66%
    21:00 +14°C° 0.1 mm 4 mps 744 mmHg 68%
    22:00 +13°C° 0.1 mm 4 mps 744 mmHg 69%
    23:00 +13°C° 0.1 mm 4 mps 744 mmHg 70%

    Tomorrow, 21 June, Thursday

    Time Temperature Precipitation Wind Pressure Humidity
    00:00 +12°C° 0.1 mm 4 mps 745 mmHg 70%
    01:00 +12°C° 0 mm 4 mps 745 mmHg 71%
    02:00 +12°C° 0 mm 4 mps 745 mmHg 71%
    03:00 +11°C° 0 mm 4 mps 745 mmHg 72%
    04:00 +12°C° 0 mm 5 mps 745 mmHg 71%
    05:00 +13°C° 0 mm 5 mps 745 mmHg 70%
    06:00 +13°C° 0 mm 6 mps 745 mmHg 69%
    07:00 +15°C° 0 mm 6 mps 745 mmHg 63%
    08:00 +16°C° 0 mm 7 mps 745 mmHg 57%
    09:00 +18°C° 0 mm 8 mps 745 mmHg 50%
    10:00 +18°C° 0 mm 8 mps 745 mmHg 48%
    11:00 +20°C° 0 mm 8 mps 745 mmHg 46%
    12:00 +21°C° 0 mm 8 mps 745 mmHg 43%
    13:00 +21°C° 0 mm 8 mps 745 mmHg 44%
    14:00 +22°C° 0 mm 7 mps 745 mmHg 44%
    15:00 +22°C° 0 mm 7 mps 745 mmHg 45%
    16:00 +21°C° 0 mm 6 mps 745 mmHg 49%
    17:00 +21°C° 0 mm 5 mps 745 mmHg 53%
    18:00 +20°C° 0 mm 4 mps 746 mmHg 57%
    19:00 +19°C° 0 mm 4 mps 746 mmHg 62%
    20:00 +17°C° 0 mm 3 mps 746 mmHg 67%
    21:00 +14°C° 0 mm 3 mps 747 mmHg 72%
    22:00 +14°C° 0 mm 3 mps 747 mmHg 77%
    23:00 +13°C° 0 mm 3 mps 747 mmHg 81%

    Day after tomorrow, 22 June, Friday

    Time Temperature Precipitation Wind Pressure Humidity
    00:00 +13°C° 0 mm 3 mps 748 mmHg 85%
    01:00 +13°C° 0 mm 2 mps 748 mmHg 88%
    02:00 +13°C° 0 mm 2 mps 748 mmHg 91%
    03:00 +13°C° 0 mm 2 mps 749 mmHg 94%
    04:00 +14°C° 0 mm 2 mps 749 mmHg 91%
    05:00 +15°C° 0 mm 2 mps 749 mmHg 87%
    06:00 +16°C° 0 mm 2 mps 749 mmHg 84%
    07:00 +18°C° 0 mm 2 mps 749 mmHg 77%
    08:00 +20°C° 0 mm 2 mps 749 mmHg 71%
    09:00 +23°C° 0 mm 2 mps 749 mmHg 64%
    10:00 +24°C° 0 mm 3 mps 749 mmHg 61%
    11:00 +25°C° 0 mm 3 mps 749 mmHg 59%
    12:00 +27°C° 0 mm 3 mps 749 mmHg 56%
    13:00 +27°C° 0 mm 3 mps 749 mmHg 56%
    14:00 +27°C° 0 mm 3 mps 748 mmHg 57%
    15:00 +28°C° 0 mm 4 mps 748 mmHg 57%
    16:00 +27°C° 0 mm 3 mps 748 mmHg 61%
    17:00 +27°C° 0 mm 3 mps 748 mmHg 64%
    18:00 +27°C° 0 mm 3 mps 748 mmHg 68%
    19:00 +25°C° 0 mm 3 mps 748 mmHg 74%
    20:00 +22°C° 0 mm 3 mps 748 mmHg 81%
    21:00 +20°C° 0 mm 3 mps 748 mmHg 88%
    22:00 +19°C° 0 mm 3 mps 748 mmHg 90%
    23:00 +19°C° 0 mm 3 mps 748 mmHg 91%

    23 June, Saturday

    Time Temperature Precipitation Wind Pressure Humidity
    00:00 +18°C° 0 mm 3 mps 748 mmHg 93%
    01:00 +18°C° 0 mm 3 mps 748 mmHg 94%
    02:00 +17°C° 0 mm 3 mps 748 mmHg 94%
    03:00 +17°C° 0 mm 2 mps 748 mmHg 95%
    04:00 +18°C° 0 mm 3 mps 748 mmHg 92%
    05:00 +19°C° 0 mm 3 mps 748 mmHg 88%
    06:00 +21°C° 0 mm 3 mps 749 mmHg 84%
    07:00 +22°C° 0 mm 3 mps 749 mmHg 79%
    08:00 +25°C° 0 mm 3 mps 749 mmHg 74%
    09:00 +27°C° 0 mm 4 mps 749 mmHg 68%
    10:00 +27°C° 0 mm 4 mps 749 mmHg 64%
    11:00 +28°C° 0 mm 4 mps 748 mmHg 60%
    12:00 +29°C° 0 mm 4 mps 748 mmHg 56%
    13:00 +29°C° 0 mm 4 mps 748 mmHg 56%
    14:00 +30°C° 0 mm 4 mps 748 mmHg 56%
    15:00 +30°C° 0 mm 4 mps 748 mmHg 55%
    16:00 +29°C° 0 mm 4 mps 748 mmHg 59%
    17:00 +29°C° 0 mm 3 mps 748 mmHg 62%
    18:00 +28°C° 0 mm 3 mps 748 mmHg 66%
    19:00 +27°C° 0 mm 3 mps 748 mmHg 72%
    20:00 +25°C° 0 mm 2 mps 748 mmHg 78%
    21:00 +23°C° 0 mm 2 mps 748 mmHg 84%
    22:00 +21°C° 0 mm 2 mps 748 mmHg 85%
    23:00 +20°C° 0 mm 3 mps 748 mmHg 85%

    24 June, Sunday

    Time Temperature Precipitation Wind Pressure Humidity
    00:00 +20°C° 0 mm 3 mps 748 mmHg 86%
    01:00 +19°C° 0 mm 3 mps 748 mmHg 86%
    02:00 +19°C° 0 mm 3 mps 748 mmHg 86%
    03:00 +19°C° 0 mm 3 mps 748 mmHg 86%
    04:00 +20°C° 0 mm 3 mps 747 mmHg 82%
    05:00 +21°C° 0 mm 4 mps 747 mmHg 78%
    06:00 +22°C° 0 mm 4 mps 747 mmHg 73%
    07:00 +23°C° 0 mm 4 mps 747 mmHg 69%
    08:00 +26°C° 0 mm 5 mps 747 mmHg 64%
    09:00 +27°C° 0 mm 5 mps 747 mmHg 60%
    10:00 +27°C° 0 mm 5 mps 747 mmHg 59%
    11:00 +27°C° 0 mm 5 mps 747 mmHg 59%
    12:00 +27°C° 0 mm 5 mps 747 mmHg 58%
    13:00 +26°C° 0 mm 5 mps 747 mmHg 60%
    14:00 +26°C° 0 mm 5 mps 748 mmHg 62%
    15:00 +26°C° 0 mm 5 mps 748 mmHg 65%
    16:00 +23°C° 0 mm 5 mps 748 mmHg 69%
    17:00 +22°C° 0 mm 5 mps 749 mmHg 73%
    18:00 +21°C° 0 mm 4 mps 749 mmHg 77%
    19:00 +19°C° 0 mm 4 mps 750 mmHg 80%
    20:00 +18°C° 0 mm 3 mps 750 mmHg 83%
    21:00 +16°C° 0 mm 2 mps 750 mmHg 87%
    22:00 +16°C° 0 mm 2 mps 751 mmHg 87%
    23:00 +15°C° 0 mm 1 mps 751 mmHg 88%

    25 June, Monday

    Time Temperature Precipitation Wind Pressure Humidity
    00:00 +15°C° 0 mm 1 mps 751 mmHg 89%
    01:00 +14°C° 0 mm 1 mps 751 mmHg 90%
    02:00 +14°C° 0 mm 1 mps 751 mmHg 91%
    03:00 +13°C° 0 mm 1 mps 751 mmHg 91%
    04:00 +14°C° 0 mm 1 mps 751 mmHg 87%
    05:00 +15°C° 0 mm 1 mps 752 mmHg 83%
    06:00 +16°C° 0 mm 2 mps 752 mmHg 79%
    07:00 +18°C° 0 mm 2 mps 752 mmHg 73%
    08:00 +20°C° 0 mm 2 mps 752 mmHg 66%
    09:00 +23°C° 0 mm 2 mps 752 mmHg 59%
    10:00 +22°C° 0 mm 3 mps 752 mmHg 57%
    11:00 +24°C° 0 mm 3 mps 752 mmHg 54%
    12:00 +25°C° 0 mm 4 mps 752 mmHg 52%
    13:00 +25°C° 0 mm 4 mps 751 mmHg 52%
    14:00 +25°C° 0 mm 4 mps 751 mmHg 51%
    15:00 +25°C° 0 mm 4 mps 751 mmHg 51%
    16:00 +25°C° 0 mm 3 mps 751 mmHg 55%
    17:00 +24°C° 0 mm 3 mps 751 mmHg 59%
    18:00 +24°C° 0 mm 3 mps 751 mmHg 63%
    19:00 +21°C° 0 mm 2 mps 751 mmHg 68%
    20:00 +19°C° 0 mm 2 mps 751 mmHg 74%
    21:00 +17°C° 0 mm 2 mps 752 mmHg 79%
    22:00 +16°C° 0 mm 2 mps 752 mmHg 81%
    23:00 +16°C° 0 mm 2 mps 752 mmHg 83%
    Show more